Location: Navarre
(52.9016°N, 113.4144°W)
Time: 07:35:20
(UTC+00:00)

Envisat - Pass Details

Date: 10 December 2021
Orbit: 764 x 766 km, 98.2° (Epoch: 17 January)

Event Time Altitude Azimuth Distance (km) Brightness Sun altitude
Rises 01:26:42 0° 228° (SW) 3,227 7.3 -18.1°
Reaches altitude 10° 01:31:18 10° 266° (W) 2,309 6.7 -18.8°
Maximum altitude 01:32:21 11° 278° (W) 2,270 6.5 -19.0°
Drops below altitude 10° 01:33:24 10° 290° (WNW) 2,312 6.3 -19.1°
Sets 01:38:02 0° 329° (NNW) 3,247 6.5 -19.8°
